This is the latest recevied weather packets stored in our database for station/object KC9DK. If no packets are shown the sender has not sent any weather packets the latest 10 day(s).
| Time | Temp. | Humidity | Pressure | Rain* | Wind** | Luminosity | Snow |
|---|---|---|---|---|---|---|---|
| 1778356836 | 24.44° C | 54% | 1010.3 hPa | 0 mm | - | 140 W/m² | - |
| 1778356531 | 23.89° C | 49% | 1010.4 hPa | 0 mm | - | 264 W/m² | - |
| 1778356226 | 23.89° C | 51% | 1010.1 hPa | 0 mm | - | 203 W/m² | - |
| 1778355921 | 24.44° C | 50% | 1010.4 hPa | 0 mm | - | 358 W/m² | - |
| 1778355619 | 25° C | 53% | 1010.4 hPa | 0 mm | - | 258 W/m² | - |
| 1778355319 | 25° C | 51% | 1010.5 hPa | 0 mm | - | 809 W/m² | - |
| 1778355016 | 24.44° C | 54% | 1010.5 hPa | 0 mm | - | 817 W/m² | - |
| 1778354712 | 25° C | 53% | 1010.4 hPa | 0 mm | - | 828 W/m² | - |
| 1778354407 | 25° C | 49% | 1010.3 hPa | 0 mm | - | 838 W/m² | - |
| 1778354102 | 25.56° C | 51% | 1010.5 hPa | 0 mm | - | 847 W/m² | - |
| 1778353798 | 25° C | 57% | 1010.5 hPa | 0 mm | - | 853 W/m² | - |
| 1778353495 | 24.44° C | 61% | 1010.6 hPa | 0 mm | - | 862 W/m² | - |
| 1778353193 | 24.44° C | 59% | 1010.4 hPa | 0 mm | - | 868 W/m² | - |
| 1778352890 | 24.44° C | 56% | 1010.4 hPa | 0 mm | - | 875 W/m² | - |
| 1778352587 | 24.44° C | 55% | 1010.6 hPa | 0 mm | - | 881 W/m² | - |
| 1778352285 | 25° C | 53% | 1010.9 hPa | 0 mm | - | 886 W/m² | - |
| 1778351981 | 25.56° C | 56% | 1010.7 hPa | 0 mm | - | 888 W/m² | - |
| 1778351675 | 25.56° C | 56% | 1010.6 hPa | 0 mm | - | 893 W/m² | - |
| 1778351372 | 25.56° C | 56% | 1010.7 hPa | 0 mm | - | 895 W/m² | - |
| 1778351068 | 25° C | 58% | 1010.6 hPa | 0 mm | - | 903 W/m² | - |
| 1778350766 | 25° C | 60% | 1010.8 hPa | 0 mm | - | 903 W/m² | - |
| 1778350464 | 23.89° C | 61% | 1010.8 hPa | 0 mm | - | 901 W/m² | - |
| 1778350161 | 23.89° C | 62% | 1010.8 hPa | 0 mm | - | 905 W/m² | - |
| 1778349856 | 23.89° C | 58% | 1010.8 hPa | 0 mm | - | 905 W/m² | - |
| 1778349553 | 23.89° C | 62% | 1010.8 hPa | 0 mm | - | 893 W/m² | - |
* Rain latest hour (hover to see other rain measurements)
** Current wind speed in m/s (hover to see current wind gust speed)